Wind_Speed
5 7 12 14 16 12 6 6 7 3 4 3 14 19 16 12 15 17 17 16 12 11 12 13 11 9 5 4 2 4 7 9 11 12 14 16 16 20 19 19 19 19 20 19
5 12 11 3 3 7 9 10 10 2 4 3 9 18 19 17 18 17 19 19 15 14 14 14 13 9 5 3 3 5 7 10 11 12 14 15 18 19 20 22 20 19 19 19
9 2 4 6 7 9 9 10 5 3 4 8 10 10 7 5 6 7 11 15 16 17 16 14 12 10 6 4 4 6 8 10 11 13 14 16 18 19 19 19 18 18 18 19
11 7 7 6 10 9 9 2 2 2 3 4 2 5 7 9 8 8 8 12 15 16 15 13 11 10 6 3 4 7 9 11 12 13 15 17 19 20 20 21 20 20 19 20
5 8 9 7 2 8 2 4 2 1 3 4 6 4 4 4 10 11 12 13 14 15 13 12 10 7 4 2 3 6 9 11 12 14 15 17 19 20 21 21 21 21 20 19
3 2 2 1 6 1 10 5 3 1 2 4 4 5 8 6 6 10 13 14 14 15 13 10 8 5 4 3 5 7 10 12 14 16 17 17 20 21 22 22 24 23 21 20
4 4 4 5 5 5 5 4 1 3 3 3 3 4 10 3 4 7 12 13 14 14 13 11 9 7 4 3 5 8 10 13 13 15 17 17 20 21 22 22 21 23 23 22
9 6 11 11 3 3 10 3 3 5 4 2 2 6 4 2 4 7 5 5 9 13 11 10 8 5 2 3 6 9 10 13 14 16 18 18 19 20 20 21 23 25 25 25
5 3 2 1 1 2 6 7 3 4 2 2 4 5 10 10 7 7 8 9 9 11 12 11 7 5 2 3 5 8 10 12 14 16 18 18 19 20 22 23 23 24 25 25
2 3 2 3 3 2 3 3 3 2 5 6 4 4 7 6 11 12 12 11 10 10 11 10 7 5 4 5 5 6 8 11 14 15 16 17 19 20 21 22 23 24 25 24
5 6 4 4 9 10 4 3 4 2 2 4 2 4 4 6 7 9 10 9 9 8 9 10 7 6 6 5 3 5 7 11 13 15 16 17 19 19 20 21 22 24 25 25
6 3 6 6 2 3 11 5 8 4 6 2 2 5 2 1 6 9 8 4 5 4 4 7 7 8 7 5 3 4 7 10 13 15 16 17 18 19 20 22 23 23 25 26
7 4 4 3 2 3 7 11 6 2 1 7 4 3 0 3 4 5 5 6 5 5 6 7 7 6 7 5 3 3 7 10 12 14 15 16 18 20 22 23 22 22 22 24
6 4 6 10 4 3 5 13 16 8 5 5 10 5 4 4 6 5 6 7 5 6 6 7 7 6 8 5 3 3 7 9 11 12 13 17 20 22 23 24 22 21 22 24
2 6 9 11 3 2 6 6 15 18 13 10 2 13 12 6 7 8 7 5 6 6 6 6 6 6 8 8 6 5 7 9 10 12 15 18 20 22 24 23 21 20 22 24
3 4 3 4 7 5 7 13 13 17 16 16 18 24 8 12 8 5 8 7 7 7 7 7 7 7 7 11 9 7 7 8 8 10 12 16 19 22 24 24 22 21 22 24
9 6 5 5 1 4 13 22 18 9 8 12 15 19 5 3 4 5 7 8 9 7 7 8 10 9 12 15 12 9 8 6 7 10 10 14 17 21 22 23 20 22 23 24
5 6 5 2 4 7 2 3 12 24 19 20 14 10 5 4 4 6 7 6 8 7 7 7 7 11 16 15 12 9 8 6 6 9 8 10 15 17 20 21 18 20 21 22
6 4 3 4 6 9 8 5 6 9 11 19 20 24 14 4 2 10 5 7 7 4 3 6 15 16 18 17 13 11 10 8 8 9 7 8 10 13 16 18 17 18 20 19
6 2 3 3 5 6 1 2 2 1 8 8 17 14 7 9 4 2 2 3 4 4 4 9 14 17 18 17 14 13 12 10 12 10 8 6 7 10 14 16 17 18 17 18
6 4 9 7 6 6 4 5 6 3 3 2 1 6 10 6 0 2 2 1 2 3 9 10 16 19 21 18 17 17 14 17 13 10 9 7 5 7 10 13 14 15 16 18
11 9 6 4 6 9 6 5 7 1 3 2 2 3 6 2 2 4 5 5 6 6 7 12 13 17 19 19 19 18 18 19 14 11 9 7 3 2 4 7 9 11 13 14
7 6 7 10 8 1 10 1 5 1 1 1 2 3 4 2 4 5 5 6 7 7 10 16 16 15 19 24 23 17 21 18 16 13 10 8 5 2 2 4 8 9 11 12
7 5 3 3 7 13 8 11 5 4 5 2 2 2 3 7 8 9 6 6 5 5 8 14 14 14 16 24 29 30 20 18 19 16 13 11 8 4 1 3 4 5 6 7
5 12 8 5 7 4 9 13 11 9 8 6 6 6 8 7 8 7 6 7 6 7 11 15 15 17 21 21 28 31 28 23 23 19 16 13 10 7 4 2 3 4 5 6
6 5 7 6 6 5 2 7 10 8 8 8 7 5 7 7 8 7 7 7 6 5 10 11 16 18 22 23 28 31 32 30 27 22 21 18 15 12 9 6 3 3 2 2
Wind_Direction
198 213 207 207 216 258 304 272 254 135 131 255 243 261 263 251 225 230 228 223 226 209 178 175 174 178 187 196 269 320 323 316 317 313 315 310 305 303 299 295 290 287 285 284
177 235 234 99 199 224 243 251 250 104 178 247 283 275 269 252 243 236 229 236 223 194 180 183 182 187 201 235 288 305 315 320 317 317 312 306 302 299 296 293 289 286 283 283
210 80 134 177 181 198 224 237 242 297 220 241 285 265 214 201 218 228 246 235 209 191 187 187 190 201 212 237 287 308 319 317 325 322 315 308 301 299 295 290 288 284 282 279
235 132 177 193 206 206 232 144 179 237 276 273 311 289 242 192 201 200 206 201 188 187 191 188 191 205 217 260 309 323 322 326 321 319 316 308 302 297 295 294 290 288 283 280
167 173 181 205 210 186 112 141 145 210 263 313 183 245 241 162 222 202 191 194 190 189 187 190 196 202 225 264 296 310 323 319 321 323 315 305 299 296 297 295 294 291 288 281
64 357 214 65 88 263 142 135 137 196 257 243 164 236 271 193 217 172 181 191 192 190 191 198 195 197 229 277 315 333 323 325 329 321 309 302 299 299 299 298 296 292 290 288
162 182 147 156 122 130 206 167 208 222 191 249 140 213 261 159 144 152 174 188 195 196 198 203 204 209 227 293 327 321 322 326 321 313 308 307 302 298 297 297 295 293 291 289
196 226 177 176 243 198 186 223 228 237 217 111 154 229 247 91 143 162 172 184 203 201 202 209 214 215 238 311 312 315 327 319 319 317 312 309 303 302 301 297 295 291 289 288
213 198 69 24 108 321 165 210 35 101 93 267 212 257 266 192 188 183 187 187 199 204 208 210 208 214 243 285 294 309 320 318 316 315 310 309 309 308 304 300 295 291 289 289
186 262 205 136 220 126 262 143 147 206 205 234 191 263 252 198 203 195 204 216 205 203 210 206 212 216 225 245 270 308 308 311 313 312 310 311 312 309 306 302 299 296 293 291
175 224 127 158 206 177 162 209 231 299 229 242 249 228 188 189 167 173 189 202 193 197 214 214 212 218 219 231 260 295 312 319 316 312 314 314 314 315 313 308 304 301 299 298
200 235 220 199 78 298 230 235 195 221 186 228 354 248 152 191 156 171 183 181 207 214 248 235 200 226 219 221 246 300 321 317 313 314 314 318 319 322 319 313 308 305 301 302
173 222 229 212 209 184 217 209 227 88 304 202 192 204 336 168 193 207 214 216 211 228 244 221 210 217 214 213 230 310 320 311 311 316 318 322 324 324 323 319 315 312 310 311
134 225 239 228 51 99 202 206 200 203 204 177 226 272 220 203 200 203 222 231 237 228 225 222 220 202 211 207 228 291 301 304 310 313 324 329 334 336 332 322 319 320 324 322
225 244 216 246 246 232 263 226 206 212 224 219 162 223 233 243 224 219 234 251 251 245 230 213 199 188 191 202 213 245 280 297 312 322 338 345 344 350 346 332 330 334 336 335
237 244 204 265 200 201 267 250 217 220 234 252 267 273 242 244 216 205 234 232 230 235 236 222 197 193 193 202 204 226 260 283 308 326 336 350 354 356 358 351 347 347 346 347
175 205 187 251 152 222 268 241 223 205 213 208 228 241 131 221 184 221 245 220 226 222 224 206 204 199 195 202 201 213 242 273 302 315 334 351 354 357 359 1 356 353 355 355
201 193 184 115 169 225 329 298 235 215 229 217 250 248 197 194 210 243 229 222 242 224 215 202 193 186 199 201 197 207 232 250 282 296 317 346 350 352 359 3 1 358 358 2
189 194 165 203 217 316 289 182 175 193 251 229 230 247 246 195 240 264 221 210 227 210 213 196 195 188 196 199 194 211 226 235 254 268 295 326 348 350 356 0 3 3 5 6
157 295 246 169 225 220 66 106 81 185 272 214 217 232 180 148 194 177 199 185 207 217 214 189 191 193 197 199 198 209 227 233 241 251 274 307 342 347 356 356 4 12 6 4
160 171 220 196 237 281 239 152 118 218 328 14 239 160 162 180 233 210 126 221 214 200 204 200 194 195 206 200 200 211 223 232 235 241 269 292 341 359 1 0 9 12 12 14
171 164 185 176 219 257 130 85 188 79 358 77 78 113 170 243 123 186 226 239 220 224 203 203 199 211 217 209 202 214 221 233 224 227 247 262 293 11 21 16 16 21 18 7
200 210 175 194 205 130 194 302 193 118 133 122 122 174 207 251 260 281 256 222 225 219 213 207 206 214 221 218 209 214 232 223 217 218 226 246 267 284 40 38 23 21 19 13
225 187 207 152 223 232 227 246 238 217 216 201 228 211 202 252 266 274 274 265 249 225 216 201 199 219 220 216 216 223 227 217 216 218 216 226 237 248 343 49 55 34 24 14
180 158 179 257 269 284 242 233 227 216 220 239 233 224 242 252 255 256 266 258 244 236 225 205 207 223 229 216 218 224 222 217 212 218 219 217 219 221 223 133 63 27 13 26
213 176 184 221 187 214 233 222 197 195 208 220 221 233 240 232 250 267 254 255 248 230 240 217 223 228 234 219 219 222 222 218 213 207 212 215 212 209 205 196 173 97 80 12
Height
756 754 748 741 743 736 748 740 737 742 761 761 745 736 727 723 729 736 731 732 735 741 748 755 758 761 764 765 766 766 767 768 767 765 762 760 757 755 752 750 748 746 745 743
757 749 736 744 742 751 749 744 739 753 762 764 742 734 722 715 714 720 727 730 731 738 746 753 756 759 762 763 764 765 766 766 765 762 761 758 756 752 749 746 744 743 740 738
741 745 749 748 753 753 749 744 741 751 757 756 753 719 710 718 724 727 728 725 727 734 742 749 753 757 760 762 764 764 764 763 761 760 757 756 753 749 746 743 741 739 737 734
741 750 752 752 747 747 746 754 756 758 750 740 748 735 702 705 717 723 726 724 726 732 739 744 749 754 757 761 762 761 761 759 759 757 755 753 751 746 744 741 737 735 733 730
742 753 754 751 746 748 749 759 758 759 752 756 742 745 698 714 713 712 721 726 728 732 738 743 748 752 756 758 758 758 757 758 756 754 753 751 747 745 741 737 733 731 728 726
750 758 752 749 762 759 761 760 760 759 754 753 733 737 702 696 699 698 712 722 726 732 737 742 747 751 753 754 755 754 755 753 751 751 751 748 744 741 737 734 731 727 724 721
751 752 758 757 762 763 760 754 756 751 755 734 752 748 700 700 706 702 708 715 722 728 734 739 743 746 748 750 752 753 752 750 750 749 747 744 741 738 734 731 727 724 720 716
733 740 752 753 747 747 754 751 733 729 727 723 760 740 699 702 705 708 714 718 717 722 729 734 739 742 744 746 749 751 748 748 747 745 744 741 739 735 730 728 724 720 716 712
725 728 761 760 756 757 757 759 751 759 802 747 712 710 697 703 709 714 717 720 720 721 726 732 737 740 742 745 747 748 747 746 745 743 741 738 735 731 727 723 719 715 711 706
730 734 758 766 764 759 758 754 749 753 738 730 716 723 695 701 698 703 711 713 713 717 723 728 735 738 740 744 745 745 746 745 743 741 738 734 731 727 723 719 714 709 705 700
729 735 758 761 754 741 764 758 763 745 732 715 707 696 690 685 689 704 704 707 708 713 718 724 731 736 739 741 741 743 743 741 740 739 735 731 728 724 719 713 708 704 698 694
734 738 726 738 745 748 737 739 741 720 733 731 732 701 698 692 691 696 703 709 710 715 718 721 728 733 736 737 739 739 739 739 739 736 733 729 725 719 714 708 703 698 692 688
739 736 725 734 747 750 744 736 735 753 742 731 716 693 706 701 702 704 707 708 713 716 718 721 726 730 732 734 735 736 737 737 736 733 730 726 721 715 709 703 698 693 687 682
733 742 723 699 708 717 735 727 730 734 725 712 704 702 697 699 707 706 707 707 710 715 718 721 723 726 729 731 732 733 735 735 732 730 726 723 718 712 706 701 695 690 684 679
740 736 731 720 723 726 721 721 724 736 718 705 699 703 698 708 712 714 713 711 713 714 716 718 719 722 726 728 730 731 732 731 730 727 724 720 716 710 704 699 693 688 682 677
744 730 734 729 724 730 733 718 719 723 726 718 711 699 694 690 698 709 711 713 711 712 713 714 716 720 721 725 726 728 729 728 727 724 722 718 714 708 702 697 693 687 682 676
740 741 737 718 725 724 723 696 702 711 713 711 710 683 688 697 700 703 702 705 704 705 707 709 711 713 717 719 721 723 724 724 723 722 720 717 713 707 702 697 693 687 681 676
734 729 723 720 735 706 672 674 670 681 682 695 686 682 685 696 698 698 697 697 697 699 700 702 706 709 712 714 716 718 720 719 720 720 718 715 712 707 702 697 693 688 683 677
731 728 726 716 708 681 666 671 682 681 667 666 674 672 676 684 689 681 686 689 690 692 693 695 699 702 706 709 711 714 717 716 717 717 715 713 709 706 701 697 694 690 685 679
733 734 719 733 701 683 663 682 687 682 670 651 655 659 671 682 675 669 687 688 689 690 692 694 696 699 703 705 707 712 713 714 713 713 712 710 708 706 703 700 697 693 690 685
727 729 716 712 698 682 668 687 684 678 661 665 660 661 669 676 674 685 686 687 687 688 690 693 694 695 698 701 703 707 709 708 709 710 711 710 707 706 704 701 699 695 691 688
701 709 710 708 706 693 680 690 672 665 668 669 669 670 672 671 676 683 684 686 686 686 686 689 692 692 694 697 698 701 703 703 705 706 707 707 706 704 702 700 698 696 692 689
687 668 683 680 672 668 673 667 668 670 667 670 669 672 673 675 673 673 675 677 679 680 680 682 686 688 689 691 692 695 695 699 700 701 703 705 705 704 701 699 697 696 694 692
682 677 678 682 656 666 668 668 668 670 669 670 670 671 673 673 673 673 673 674 674 675 675 677 681 683 682 683 685 686 691 692 696 697 698 701 702 703 701 700 697 695 694 693
667 678 676 675 664 663 661 661 656 662 666 667 669 670 669 670 670 670 669 670 669 670 670 671 673 675 673 676 677 680 684 687 688 693 696 698 700 700 700 699 699 699 697 696
667 658 659 647 648 645 644 647 652 658 659 661 665 666 666 666 666 665 666 664 664 664 664 665 665 667 666 668 668 671 676 681 683 685 689 692 694 695 696 697 697 697 697 697